ARG1783 SARI-SABE

Flight info

Callsign ARG1783
Flight time 1h 36m
Altitude 32000
Route NAIDE UT667 GEMSU UN785 GUA UZ129 PAGON PAGON9R
Aircraft B738/M-MSDFGHILRVWS/LB1

Departure

Time 2026-04-21 20:00
Airport Cataratas Del Iguazú International Airport (SARI)

Arrival

Time 2026-04-21 21:37
Airport Aeroparque Jorge Newbery (SABE)
Time Latitude Longitude Altitude Speed Heading
2026-04-21 19:19 -25.73225 -54.47675 926 ft 0 kts 26°
2026-04-21 19:49 -25.73228 -54.47677 930 ft 3 kts 26°
2026-04-21 19:49 -25.73252 -54.47689 927 ft 4 kts 16°
2026-04-21 19:50 -25.73271 -54.47691 930 ft 4 kts 301°
2026-04-21 19:50 -25.73282 -54.47667 930 ft 4 kts 295°
2026-04-21 19:50 -25.73286 -54.47658 929 ft 0 kts 295°
2026-04-21 19:54 -25.73268 -54.47699 928 ft 10 kts 296°
2026-04-21 19:55 -25.73233 -54.47781 927 ft 12 kts 295°
2026-04-21 19:55 -25.73222 -54.47874 926 ft 12 kts 264°
2026-04-21 19:55 -25.73229 -54.47966 926 ft 12 kts 264°
2026-04-21 19:55 -25.73237 -54.48056 926 ft 12 kts 265°
2026-04-21 19:56 -25.73244 -54.48143 929 ft 11 kts 265°
2026-04-21 19:56 -25.73251 -54.48228 928 ft 11 kts 265°
2026-04-21 19:56 -25.73254 -54.48276 928 ft 0 kts 264°
2026-04-21 19:57 -25.73256 -54.48290 929 ft 7 kts 264°
2026-04-21 19:58 -25.73266 -54.48391 927 ft 18 kts 265°
2026-04-21 19:58 -25.73233 -54.48530 926 ft 19 kts 295°
2026-04-21 19:58 -25.73178 -54.48662 927 ft 18 kts 295°
2026-04-21 19:58 -25.73111 -54.48756 928 ft 9 kts 323°
2026-04-21 19:59 -25.73100 -54.48810 928 ft 8 kts 223°
2026-04-21 19:59 -25.73121 -54.48797 926 ft 4 kts 118°
2026-04-21 19:59 -25.73133 -54.48770 926 ft 5 kts 114°
2026-04-21 19:59 -25.73238 -54.48522 929 ft 75 kts 115°
2026-04-21 20:00 -25.73563 -54.47743 929 ft 145 kts 115°
2026-04-21 20:00 -25.74059 -54.46566 1181 ft 181 kts 115°
2026-04-21 20:00 -25.74620 -54.45252 1833 ft 197 kts 114°
2026-04-21 20:00 -25.75213 -54.43854 2644 ft 203 kts 114°
2026-04-21 20:01 -25.75835 -54.42386 3303 ft 217 kts 113°
2026-04-21 20:01 -25.76474 -54.40867 3954 ft 225 kts 112°
2026-04-21 20:01 -25.77327 -54.39291 4223 ft 255 kts 137°
2026-04-21 20:01 -25.78973 -54.38434 4619 ft 277 kts 173°
2026-04-21 20:02 -25.80935 -54.38279 5303 ft 287 kts 179°
2026-04-21 20:02 -25.82943 -54.38187 6214 ft 289 kts 179°
2026-04-21 20:02 -25.84958 -54.38090 7096 ft 291 kts 179°
2026-04-21 20:02 -25.86994 -54.37977 7936 ft 294 kts 179°
2026-04-21 20:03 -25.89043 -54.37848 8819 ft 296 kts 179°
2026-04-21 20:03 -25.91115 -54.37708 9667 ft 300 kts 179°
2026-04-21 20:03 -25.93210 -54.37559 10445 ft 306 kts 179°
2026-04-21 20:03 -25.95391 -54.37402 10680 ft 331 kts 178°
2026-04-21 20:04 -25.97769 -54.37227 10855 ft 355 kts 178°
2026-04-21 20:04 -26.00303 -54.37036 11184 ft 371 kts 178°
2026-04-21 20:04 -26.02911 -54.36836 11682 ft 380 kts 178°
2026-04-21 20:04 -26.05566 -54.36629 12328 ft 383 kts 178°
2026-04-21 20:05 -26.08231 -54.36421 13067 ft 385 kts 178°
2026-04-21 20:05 -26.10910 -54.36213 13752 ft 387 kts 178°
2026-04-21 20:05 -26.13609 -54.36004 14347 ft 391 kts 178°
2026-04-21 20:05 -26.16290 -54.35872 14960 ft 390 kts 186°
2026-04-21 20:06 -26.18908 -54.36485 15675 ft 383 kts 205°
2026-04-21 20:06 -26.21215 -54.37913 16352 ft 379 kts 218°
2026-04-21 20:06 -26.23323 -54.39693 16923 ft 382 kts 220°
2026-04-21 20:06 -26.25433 -54.41520 17441 ft 386 kts 220°
2026-04-21 20:07 -26.27555 -54.43364 18023 ft 388 kts 220°
2026-04-21 20:07 -26.29696 -54.45219 18538 ft 391 kts 220°
2026-04-21 20:07 -26.31854 -54.47077 19032 ft 393 kts 220°
2026-04-21 20:07 -26.33999 -54.48916 19521 ft 395 kts 220°
2026-04-21 20:08 -26.36186 -54.50785 19999 ft 397 kts 220°
2026-04-21 20:08 -26.38389 -54.52664 20470 ft 400 kts 220°
2026-04-21 20:08 -26.40604 -54.54552 20933 ft 402 kts 220°
2026-04-21 20:08 -26.42835 -54.56452 21375 ft 405 kts 220°
2026-04-21 20:09 -26.45075 -54.58362 21818 ft 407 kts 221°
2026-04-21 20:09 -26.47331 -54.60285 22262 ft 409 kts 221°
2026-04-21 20:09 -26.49598 -54.62220 22694 ft 411 kts 221°
2026-04-21 20:09 -26.51877 -54.64166 23094 ft 414 kts 221°
2026-04-21 20:10 -26.54142 -54.66101 23505 ft 416 kts 221°
2026-04-21 20:10 -26.56446 -54.68070 23845 ft 418 kts 221°
2026-04-21 20:10 -26.58761 -54.70049 24202 ft 419 kts 221°
2026-04-21 20:10 -26.61079 -54.72031 24581 ft 420 kts 221°
2026-04-21 20:11 -26.63403 -54.74020 24934 ft 421 kts 221°
2026-04-21 20:11 -26.65730 -54.76013 25279 ft 422 kts 222°
2026-04-21 20:11 -26.68061 -54.78009 25636 ft 423 kts 222°
2026-04-21 20:11 -26.70397 -54.80012 25990 ft 423 kts 222°
2026-04-21 20:12 -26.72737 -54.82020 26314 ft 425 kts 222°
2026-04-21 20:12 -26.75086 -54.84036 26614 ft 426 kts 222°
2026-04-21 20:12 -26.77409 -54.86032 26912 ft 428 kts 222°
2026-04-21 20:12 -26.79773 -54.88063 27203 ft 429 kts 222°
2026-04-21 20:13 -26.82144 -54.90101 27501 ft 430 kts 222°
2026-04-21 20:13 -26.84522 -54.92147 27778 ft 431 kts 222°
2026-04-21 20:13 -26.86904 -54.94197 28048 ft 433 kts 222°
2026-04-21 20:13 -26.89294 -54.96255 28313 ft 434 kts 222°
2026-04-21 20:14 -26.91690 -54.98319 28592 ft 435 kts 222°
2026-04-21 20:14 -26.94060 -55.00361 28870 ft 435 kts 222°
2026-04-21 20:14 -26.96463 -55.02434 29186 ft 435 kts 223°
2026-04-21 20:14 -26.98852 -55.04494 29602 ft 432 kts 223°
2026-04-21 20:15 -27.01227 -55.06542 30043 ft 429 kts 223°
2026-04-21 20:15 -27.03591 -55.08583 30390 ft 428 kts 223°
2026-04-21 20:15 -27.05942 -55.10616 30703 ft 426 kts 223°
2026-04-21 20:15 -27.08285 -55.12642 31052 ft 424 kts 223°
2026-04-21 20:16 -27.10617 -55.14660 31427 ft 422 kts 223°
2026-04-21 20:16 -27.12931 -55.16662 31814 ft 419 kts 223°
2026-04-21 20:16 -27.15232 -55.18656 32171 ft 417 kts 223°
2026-04-21 20:16 -27.17492 -55.20615 32539 ft 415 kts 223°
2026-04-21 20:17 -27.19770 -55.22590 32888 ft 413 kts 223°
2026-04-21 20:17 -27.22043 -55.24564 33233 ft 412 kts 223°
2026-04-21 20:17 -27.24302 -55.26525 33645 ft 409 kts 223°
2026-04-21 20:17 -27.26547 -55.28473 34074 ft 406 kts 224°
2026-04-21 20:18 -27.28021 -55.29754 34335 ft 404 kts 224°
2026-04-21 20:18 -27.30983 -55.32329 34714 ft 403 kts 224°
2026-04-21 20:18 -27.33200 -55.34260 34917 ft 404 kts 224°
2026-04-21 20:18 -27.35420 -55.36194 35157 ft 404 kts 224°
2026-04-21 20:19 -27.37611 -55.38102 35402 ft 403 kts 224°
2026-04-21 20:19 -27.39824 -55.40031 35661 ft 402 kts 224°
2026-04-21 20:19 -27.42034 -55.41957 35906 ft 401 kts 224°
2026-04-21 20:20 -27.46473 -55.45833 35997 ft 406 kts 224°
2026-04-21 20:20 -27.50928 -55.49722 35992 ft 403 kts 224°
2026-04-21 20:21 -27.55301 -55.53545 35998 ft 400 kts 224°
2026-04-21 20:21 -27.59683 -55.57380 36011 ft 398 kts 225°
2026-04-21 20:22 -27.64179 -55.61049 36003 ft 400 kts 221°
2026-04-21 20:22 -27.71128 -55.66204 36000 ft 401 kts 221°
2026-04-21 20:23 -27.75787 -55.69668 35992 ft 401 kts 221°
2026-04-21 20:23 -27.80436 -55.73150 35999 ft 401 kts 221°
2026-04-21 20:24 -27.85092 -55.76650 36002 ft 402 kts 221°
2026-04-21 20:24 -27.89720 -55.80135 36019 ft 403 kts 221°
2026-04-21 20:25 -27.94398 -55.83662 35998 ft 404 kts 221°
2026-04-21 20:25 -27.99076 -55.87191 35999 ft 404 kts 221°
2026-04-21 20:26 -28.03752 -55.90722 35989 ft 404 kts 221°
2026-04-21 20:26 -28.08389 -55.94227 35993 ft 403 kts 221°
2026-04-21 20:27 -28.13051 -55.97756 35996 ft 403 kts 221°
2026-04-21 20:27 -28.17706 -56.01284 35987 ft 402 kts 221°
2026-04-21 20:28 -28.22356 -56.04810 36015 ft 402 kts 222°
2026-04-21 20:28 -28.27000 -56.08337 36002 ft 401 kts 222°
2026-04-21 20:29 -28.31598 -56.11831 35994 ft 400 kts 222°
2026-04-21 20:29 -28.36219 -56.15348 35990 ft 399 kts 222°
2026-04-21 20:30 -28.40823 -56.18855 35996 ft 398 kts 222°
2026-04-21 20:30 -28.45422 -56.22362 35994 ft 398 kts 222°
2026-04-21 20:31 -28.49979 -56.25841 35994 ft 397 kts 222°
2026-04-21 20:31 -28.54561 -56.29344 36004 ft 397 kts 222°
2026-04-21 20:32 -28.59150 -56.32854 36000 ft 397 kts 223°
2026-04-21 20:32 -28.63735 -56.36367 35993 ft 397 kts 223°
2026-04-21 20:33 -28.68295 -56.39862 35994 ft 397 kts 223°
2026-04-21 20:33 -28.72879 -56.43381 35994 ft 398 kts 223°
2026-04-21 20:34 -28.77469 -56.46908 35992 ft 398 kts 223°
2026-04-21 20:34 -28.82061 -56.50440 35992 ft 398 kts 223°
2026-04-21 20:35 -28.86629 -56.53957 35998 ft 399 kts 223°
2026-04-21 20:35 -28.91229 -56.57503 36006 ft 399 kts 223°
2026-04-21 20:36 -28.95825 -56.61051 35991 ft 399 kts 223°
2026-04-21 20:36 -29.00416 -56.64600 35989 ft 399 kts 223°
2026-04-21 20:37 -29.04975 -56.68128 35996 ft 398 kts 223°
2026-04-21 20:37 -29.09560 -56.71681 36002 ft 398 kts 223°
2026-04-21 20:38 -29.14138 -56.75231 35999 ft 397 kts 223°
2026-04-21 20:38 -29.18710 -56.78782 36003 ft 397 kts 223°
2026-04-21 20:39 -29.23252 -56.82312 35995 ft 397 kts 223°
2026-04-21 20:39 -29.27821 -56.85867 36004 ft 397 kts 224°
2026-04-21 20:40 -29.32386 -56.89424 35996 ft 397 kts 224°
2026-04-21 20:40 -29.36945 -56.92979 35997 ft 396 kts 224°
2026-04-21 20:41 -29.41474 -56.96515 36002 ft 396 kts 224°
2026-04-21 20:41 -29.46029 -57.00077 36000 ft 396 kts 224°
2026-04-21 20:42 -29.50584 -57.03641 36001 ft 396 kts 224°
2026-04-21 20:42 -29.55140 -57.07209 35997 ft 397 kts 224°
2026-04-21 20:43 -29.59696 -57.10782 35992 ft 397 kts 224°
2026-04-21 20:43 -29.64225 -57.14339 36002 ft 397 kts 224°
2026-04-21 20:44 -29.68790 -57.17926 35992 ft 397 kts 224°
2026-04-21 20:44 -29.73353 -57.21516 36004 ft 398 kts 224°
2026-04-21 20:45 -29.77918 -57.25113 36025 ft 398 kts 224°
2026-04-21 20:45 -29.82462 -57.28697 36007 ft 398 kts 224°
2026-04-21 20:46 -29.87029 -57.32302 36004 ft 398 kts 224°
2026-04-21 20:46 -29.91589 -57.35905 36005 ft 397 kts 224°
2026-04-21 20:47 -29.96144 -57.39509 36007 ft 397 kts 224°
2026-04-21 20:47 -30.00697 -57.43117 36003 ft 397 kts 224°
2026-04-21 20:48 -30.05214 -57.46700 35999 ft 396 kts 224°
2026-04-21 20:48 -30.09754 -57.50305 36008 ft 397 kts 225°
2026-04-21 20:49 -30.14299 -57.53918 36006 ft 396 kts 225°
2026-04-21 20:49 -30.18837 -57.57530 36002 ft 396 kts 225°
2026-04-21 20:50 -30.23341 -57.61118 36002 ft 396 kts 225°
2026-04-21 20:50 -30.28189 -57.64308 36002 ft 411 kts 213°
2026-04-21 20:51 -30.33746 -57.66330 36001 ft 420 kts 208°
2026-04-21 20:51 -30.39363 -57.68235 36009 ft 421 kts 208°
2026-04-21 20:52 -30.44965 -57.70170 36001 ft 420 kts 208°
2026-04-21 20:52 -30.50526 -57.72113 35998 ft 420 kts 209°
2026-04-21 20:53 -30.56120 -57.74073 35996 ft 420 kts 209°
2026-04-21 20:53 -30.61711 -57.76034 35998 ft 419 kts 209°
2026-04-21 20:54 -30.67296 -57.77995 36001 ft 419 kts 209°
2026-04-21 20:54 -30.72844 -57.79937 36005 ft 419 kts 209°
2026-04-21 20:55 -30.78422 -57.81880 35997 ft 418 kts 209°
2026-04-21 20:55 -30.83991 -57.83822 36003 ft 418 kts 209°
2026-04-21 20:56 -30.89551 -57.85765 36022 ft 417 kts 209°
2026-04-21 20:56 -30.95076 -57.87700 36010 ft 417 kts 209°
2026-04-21 20:57 -31.00631 -57.89647 36003 ft 417 kts 209°
2026-04-21 20:57 -31.06182 -57.91595 36002 ft 416 kts 209°
2026-04-21 20:58 -31.11727 -57.93544 36007 ft 417 kts 209°
2026-04-21 20:58 -31.17276 -57.95496 36017 ft 416 kts 209°
2026-04-21 20:59 -31.22789 -57.97439 35998 ft 417 kts 209°
2026-04-21 20:59 -31.28338 -57.99395 35997 ft 417 kts 209°
2026-04-21 21:00 -31.33886 -58.01354 35987 ft 416 kts 209°
2026-04-21 21:00 -31.39396 -58.03302 35997 ft 416 kts 209°
2026-04-21 21:01 -31.44939 -58.05265 35999 ft 417 kts 209°
2026-04-21 21:01 -31.50497 -58.07235 35996 ft 417 kts 209°
2026-04-21 21:02 -31.56052 -58.09206 35994 ft 417 kts 209°
2026-04-21 21:02 -31.61608 -58.11180 36003 ft 417 kts 209°
2026-04-21 21:03 -31.67118 -58.13139 36015 ft 417 kts 209°
2026-04-21 21:03 -31.72680 -58.15121 36024 ft 418 kts 209°
2026-04-21 21:04 -31.78246 -58.17106 36022 ft 418 kts 209°
2026-04-21 21:04 -31.83814 -58.19095 36017 ft 419 kts 209°
2026-04-21 21:05 -31.89354 -58.21075 36024 ft 419 kts 209°
2026-04-21 21:05 -31.94944 -58.23077 36059 ft 420 kts 209°
2026-04-21 21:06 -32.00547 -58.25086 36026 ft 422 kts 208°
2026-04-21 21:06 -32.06162 -58.27101 36017 ft 422 kts 208°
2026-04-21 21:07 -32.11744 -58.29106 36015 ft 422 kts 208°
2026-04-21 21:07 -32.17360 -58.31126 36017 ft 422 kts 208°
2026-04-21 21:08 -32.22980 -58.33152 36016 ft 422 kts 208°
2026-04-21 21:08 -32.28589 -58.35175 36017 ft 422 kts 208°
2026-04-21 21:09 -32.31400 -58.36192 35691 ft 427 kts 208°
2026-04-21 21:09 -32.34242 -58.37219 35183 ft 425 kts 208°
2026-04-21 21:09 -32.37035 -58.38221 34706 ft 423 kts 208°
2026-04-21 21:09 -32.39832 -58.39220 34295 ft 418 kts 208°
2026-04-21 21:10 -32.42609 -58.40214 33850 ft 414 kts 208°
2026-04-21 21:10 -32.45354 -58.41200 33378 ft 411 kts 208°
2026-04-21 21:10 -32.48076 -58.42179 32946 ft 407 kts 208°
2026-04-21 21:10 -32.50771 -58.43151 32510 ft 403 kts 208°
2026-04-21 21:11 -32.53445 -58.44116 32089 ft 400 kts 208°
2026-04-21 21:11 -32.56088 -58.45072 31681 ft 396 kts 208°
2026-04-21 21:11 -32.58682 -58.46010 31280 ft 393 kts 208°
2026-04-21 21:11 -32.61290 -58.46955 30882 ft 390 kts 207°
2026-04-21 21:12 -32.63878 -58.47892 30502 ft 388 kts 207°
2026-04-21 21:12 -32.66453 -58.48826 30080 ft 386 kts 207°
2026-04-21 21:12 -32.69016 -58.49756 29615 ft 384 kts 207°
2026-04-21 21:12 -32.71558 -58.50677 29210 ft 381 kts 207°
2026-04-21 21:13 -32.74081 -58.51591 28779 ft 377 kts 207°
2026-04-21 21:13 -32.76582 -58.52499 28369 ft 374 kts 207°
2026-04-21 21:13 -32.79055 -58.53397 27969 ft 371 kts 207°
2026-04-21 21:13 -32.81481 -58.54279 27571 ft 368 kts 207°
2026-04-21 21:14 -32.83918 -58.55166 27183 ft 365 kts 207°
2026-04-21 21:14 -32.86334 -58.56045 26797 ft 362 kts 207°
2026-04-21 21:14 -32.88731 -58.56919 26414 ft 359 kts 207°
2026-04-21 21:14 -32.91113 -58.57788 26048 ft 357 kts 207°
2026-04-21 21:15 -32.93475 -58.58650 25662 ft 354 kts 207°
2026-04-21 21:15 -32.95827 -58.59508 25297 ft 352 kts 207°
2026-04-21 21:15 -32.98164 -58.60361 24929 ft 351 kts 207°
2026-04-21 21:15 -33.00469 -58.61189 24541 ft 351 kts 205°
2026-04-21 21:16 -33.02911 -58.61709 24164 ft 360 kts 196°
2026-04-21 21:16 -33.05401 -58.62006 23801 ft 360 kts 195°
2026-04-21 21:16 -33.07894 -58.62274 23408 ft 359 kts 195°
2026-04-21 21:16 -33.10378 -58.62537 22977 ft 358 kts 195°
2026-04-21 21:17 -33.12850 -58.62805 22585 ft 356 kts 195°
2026-04-21 21:17 -33.15307 -58.63077 22199 ft 353 kts 195°
2026-04-21 21:17 -33.17746 -58.63353 21825 ft 351 kts 195°
2026-04-21 21:17 -33.20173 -58.63631 21456 ft 349 kts 195°
2026-04-21 21:18 -33.22579 -58.63909 21120 ft 347 kts 195°
2026-04-21 21:18 -33.24949 -58.64179 20747 ft 347 kts 194°
2026-04-21 21:18 -33.27346 -58.64444 20369 ft 346 kts 194°
2026-04-21 21:18 -33.29739 -58.64707 19995 ft 345 kts 194°
2026-04-21 21:19 -33.32123 -58.64968 19641 ft 344 kts 194°
2026-04-21 21:19 -33.34500 -58.65230 19290 ft 342 kts 194°
2026-04-21 21:19 -33.36871 -58.65492 18929 ft 342 kts 194°
2026-04-21 21:19 -33.39238 -58.65754 18570 ft 341 kts 194°
2026-04-21 21:20 -33.41599 -58.66016 18199 ft 341 kts 193°
2026-04-21 21:20 -33.43963 -58.66279 17792 ft 340 kts 193°
2026-04-21 21:20 -33.46316 -58.66541 17428 ft 339 kts 193°
2026-04-21 21:20 -33.48622 -58.66796 17068 ft 337 kts 193°
2026-04-21 21:21 -33.50954 -58.67055 16708 ft 335 kts 193°
2026-04-21 21:21 -33.53268 -58.67313 16358 ft 333 kts 193°
2026-04-21 21:21 -33.55575 -58.67569 16008 ft 332 kts 193°
2026-04-21 21:21 -33.57865 -58.67825 15664 ft 330 kts 193°
2026-04-21 21:22 -33.60145 -58.68079 15329 ft 328 kts 193°
2026-04-21 21:22 -33.62413 -58.68332 14985 ft 327 kts 193°
2026-04-21 21:22 -33.64676 -58.68585 14641 ft 325 kts 193°
2026-04-21 21:22 -33.66925 -58.68837 14303 ft 324 kts 193°
2026-04-21 21:23 -33.69139 -58.69085 13982 ft 323 kts 193°
2026-04-21 21:23 -33.71379 -58.69336 13595 ft 324 kts 193°
2026-04-21 21:23 -33.73617 -58.69587 13228 ft 322 kts 192°
2026-04-21 21:23 -33.75843 -58.69836 12871 ft 321 kts 192°
2026-04-21 21:24 -33.78055 -58.70084 12532 ft 319 kts 192°
2026-04-21 21:24 -33.80258 -58.70331 12190 ft 317 kts 192°
2026-04-21 21:24 -33.82448 -58.70576 11860 ft 315 kts 192°
2026-04-21 21:24 -33.84624 -58.70820 11516 ft 313 kts 192°
2026-04-21 21:25 -33.86785 -58.71063 11195 ft 311 kts 192°
2026-04-21 21:25 -33.88931 -58.71096 10842 ft 317 kts 179°
2026-04-21 21:25 -33.91087 -58.70676 10714 ft 310 kts 175°
2026-04-21 21:25 -33.93172 -58.70210 10605 ft 301 kts 175°
2026-04-21 21:26 -33.95204 -58.69756 10426 ft 294 kts 175°
2026-04-21 21:26 -33.97213 -58.69320 10157 ft 292 kts 175°
2026-04-21 21:26 -33.99212 -58.68898 9895 ft 291 kts 175°
2026-04-21 21:26 -34.01199 -58.68486 9600 ft 289 kts 175°
2026-04-21 21:27 -34.03173 -58.68081 9292 ft 287 kts 175°
2026-04-21 21:27 -34.05140 -58.67681 8988 ft 286 kts 175°
2026-04-21 21:27 -34.07100 -58.67284 8681 ft 285 kts 175°
2026-04-21 21:27 -34.09028 -58.66895 8392 ft 284 kts 175°
2026-04-21 21:28 -34.10974 -58.66503 8117 ft 283 kts 175°
2026-04-21 21:28 -34.12910 -58.66113 7845 ft 282 kts 175°
2026-04-21 21:28 -34.16781 -58.65333 7224 ft 281 kts 174°
2026-04-21 21:29 -34.18706 -58.64945 6950 ft 280 kts 174°
2026-04-21 21:29 -34.20619 -58.64560 6685 ft 278 kts 174°
2026-04-21 21:29 -34.22521 -58.64176 6434 ft 276 kts 174°
2026-04-21 21:29 -34.24414 -58.63794 6158 ft 276 kts 174°
2026-04-21 21:30 -34.26303 -58.63413 5860 ft 275 kts 174°
2026-04-21 21:30 -34.28185 -58.63034 5570 ft 274 kts 173°
2026-04-21 21:30 -34.30066 -58.62654 5285 ft 274 kts 173°
2026-04-21 21:30 -34.31918 -58.62280 5027 ft 273 kts 173°
2026-04-21 21:31 -34.33784 -58.61902 4771 ft 271 kts 173°
2026-04-21 21:31 -34.35646 -58.61526 4454 ft 271 kts 173°
2026-04-21 21:31 -34.37501 -58.61150 4235 ft 268 kts 173°
2026-04-21 21:31 -34.39307 -58.60784 4126 ft 259 kts 173°
2026-04-21 21:32 -34.40473 -58.60547 4040 ft 254 kts 173°
2026-04-21 21:32 -34.42751 -58.60085 3926 ft 243 kts 173°
2026-04-21 21:32 -34.43845 -58.59863 3864 ft 238 kts 173°
2026-04-21 21:32 -34.45434 -58.59471 3789 ft 230 kts 161°
2026-04-21 21:33 -34.46916 -58.57786 3634 ft 217 kts 121°
2026-04-21 21:33 -34.47450 -58.56784 3528 ft 211 kts 125°
2026-04-21 21:33 -34.48507 -58.54950 3312 ft 193 kts 124°
2026-04-21 21:33 -34.49016 -58.54040 3089 ft 191 kts 124°
2026-04-21 21:34 -34.49736 -58.52741 2865 ft 176 kts 124°
2026-04-21 21:34 -34.50395 -58.51551 2572 ft 166 kts 125°
2026-04-21 21:34 -34.51027 -58.50412 2215 ft 158 kts 126°
2026-04-21 21:34 -34.51632 -58.49320 1797 ft 153 kts 127°
2026-04-21 21:35 -34.52243 -58.48223 1546 ft 164 kts 127°
2026-04-21 21:35 -34.52882 -58.47105 1132 ft 161 kts 126°
2026-04-21 21:35 -34.53485 -58.45991 785 ft 155 kts 126°
2026-04-21 21:35 -34.54089 -58.44902 538 ft 154 kts 125°
2026-04-21 21:36 -34.54656 -58.43858 317 ft 144 kts 126°
2026-04-21 21:36 -34.55214 -58.42861 128 ft 143 kts 124°
2026-04-21 21:36 -34.55751 -58.41889 24 ft 128 kts 124°
2026-04-21 21:36 -34.56129 -58.41213 27 ft 66 kts 124°
2026-04-21 21:37 -34.56229 -58.40953 24 ft 16 kts 96°
2026-04-21 21:37 -34.56234 -58.40874 24 ft 3 kts 94°
2026-04-21 21:37 -34.56235 -58.40864 24 ft 1 kts 94°
2026-04-21 21:37 -34.56235 -58.40858 24 ft 1 kts 94°
2026-04-21 21:38 -34.56235 -58.40847 24 ft 2 kts 93°
2026-04-21 21:38 -34.56236 -58.40828 24 ft 2 kts 91°
2026-04-21 21:38 -34.56236 -58.40810 24 ft 2 kts 91°
2026-04-21 21:38 -34.56237 -58.40793 24 ft 2 kts 91°
2026-04-21 21:39 -34.56237 -58.40776 29 ft 2 kts 91°
2026-04-21 21:39 -34.56232 -58.40759 28 ft 3 kts 46°
2026-04-21 21:39 -34.56204 -58.40772 24 ft 5 kts 316°
2026-04-21 21:39 -34.56183 -58.40810 26 ft 5 kts 303°
2026-04-21 21:40 -34.56173 -58.40851 26 ft 5 kts 262°
2026-04-21 21:40 -34.56166 -58.40897 24 ft 7 kts 294°
2026-04-21 21:40 -34.56135 -58.40962 24 ft 11 kts 303°
2026-04-21 21:40 -34.56086 -58.41043 28 ft 12 kts 307°
2026-04-21 21:41 -34.56036 -58.41121 25 ft 12 kts 307°
2026-04-21 21:41 -34.55987 -58.41199 28 ft 11 kts 308°
2026-04-21 21:41 -34.55942 -58.41271 28 ft 9 kts 306°
2026-04-21 21:41 -34.55895 -58.41302 26 ft 8 kts 13°
2026-04-21 21:42 -34.55845 -58.41282 28 ft 7 kts 341°
2026-04-21 21:42 -34.55815 -58.41313 24 ft 3 kts 345°
2026-04-21 21:42 -34.55796 -58.41301 24 ft 3 kts 28°
2026-04-21 21:42 -34.55783 -58.41291 24 ft 2 kts 35°
2026-04-21 21:43 -34.55778 -58.41287 24 ft 0 kts 35°